Regional Weather Roundup
Issued by NWS Columbia, SC

Home | Current Version | Previous Version | Text Only | Print | Product List | Glossary On
Versions: 1 2 3 4 5 6 7 8 9 10 11 12 13 14 15 16 17 18 19 20 21 22 23 24 25 26 27 28 29 30 31 32 33 34 35 36 37 38 39 40 41 42 43 44 45 46 47 48 49 50
000
ASUS42 KCAE 292010
RWRCAE
REGIONAL WEATHER ROUNDUP
NATIONAL WEATHER SERVICE COLUMBIA SC
400 PM EDT WED JUL 29 2015

NOTE: "FAIR" INDICATES FEW OR NO CLOUDS BELOW 12,000 FEET WITH NO
SIGNIFICANT WEATHER AND/OR OBSTRUCTIONS TO VISIBILITY.

NOT ALL STATIONS ARE QUALITY CONTROLLED BY THE NATIONAL
WEATHER SERVICE. USE DATA WITH CAUTION...ESPECIALLY
DEWPOINT OBSERVATIONS.

SCZ001>056-GAZ040-063>065-077-292100-
...UPSTATE SOUTH CAROLINA...

CITY           SKY/WX    TMP DP  RH WIND       PRES   REMARKS
ANDERSON       PTSUNNY   94  71  47 MISG      29.95F HX 101
SPARTANBURG    DRIZZLE   88  77  70 SW3       29.97F HX 100
CLEMSON        PTSUNNY   86  73  65 NE10G21   29.99R
GREENVILLE     LGT RAIN  82  73  74 SW7       29.99S
GREENWOOD      LGT RAIN  85  74  69 E7        29.97F
GREER          MOSUNNY   91  71  51 W12       29.96F HX  97
ROCK HILL      MOSUNNY   88  73  61 E3        29.98F HX  95
CHESTER        PTCLDY    91  70  49 CALM      29.98F HX  97
LAURENS        MOCLDY    81  79  94 SE7       29.98F


...CENTRAL SOUTH CAROLINA...

CITY           SKY/WX    TMP DP  RH WIND       PRES   REMARKS
COLUMBIA APT   MOSUNNY   97  66  36 VRB5      29.92F HX 100
COLUMBIA OWENS PTSUNNY   95  69  42 SW8       29.94F HX 100
DARLINGTON     MOSUNNY   93  68  43 SE9       29.96S HX  97
FLORENCE       MOSUNNY   94  67  41 CALM      29.94F HX  97
MCENTIRE ANGB  PTSUNNY   96  66  36 VRB3      29.93F HX  99
ORANGEBURG     SUNNY     96  64  34 NE8       29.93F HX  98
SUMTER SHAW    PTSUNNY   96  66  37 E8        29.92F HX  99
NEWBERRY       MOCLDY    79  73  83 N8        30.00F
BARNWELL       FAIR      93  73  52 NW8       29.93F HX 102
MANNING        FAIR      91  63  38 S8        29.93F
CAMDEN         FAIR      93  68  43 VRB6      29.96S HX  97
LANCASTER      PTCLDY    91  72  52 S7        29.97S HX  98
WINNSBORO      PTCLDY    91  70  49 NE7       29.96F HX  97


...EASTERN AND COASTAL SOUTH CAROLINA...

CITY           SKY/WX    TMP DP  RH WIND       PRES   REMARKS
MYRTLE BEACH   MOSUNNY   88  73  62 E10       29.97F HX  96
N MYRTLE BCH   MOSUNNY   87  73  62 E13       29.96F
CONWAY         FAIR      93  72  49 E6        29.94F HX 100
MARION         FAIR      93  61  33 CALM      29.94F
HARTSVILLE     MOCLDY    95  64  36 CALM      29.95F HX  97
FLORENCE       MOSUNNY   94  67  41 CALM      29.94F HX  97
DARLINGTON     MOSUNNY   93  68  43 SE9       29.96S HX  97
CHARLESTON APT MOSUNNY   92  73  53 NE8       29.92F HX 100
MOUNT PLEASANT FAIR      90  77  66 E7        29.93F HX 102
WALTERBORO     CLEAR     97  61  30 N5        29.93F HX  97
BEAUFORT       MOSUNNY   94  72  48 VRB5      29.92F HX 102


...EASTERN GEORGIA...

CITY           SKY/WX    TMP DP  RH WIND       PRES   REMARKS
AUGUSTA BUSH F MOSUNNY   92  73  53 W5        29.93F HX 100
AUGUSTA DANIEL MOSUNNY   90  75  61 S6        29.95F HX 100
THOMSON        MOSUNNY   94  77  56 SE7       29.97S HX 108
WASHINGTON     FAIR      90  77  66 S7        29.95S THUNDER HX 102
CLAXTON        FAIR      95  73  49 NE6       29.91F HX 105
SYLVANIA       PTCLDY    96  74  48 CALM      29.92F HX 106
STATESBORO     MOSUNNY   95  76  52 CALM      29.91F HX 107
SAVANNAH       MOSUNNY   93  67  42 NE8       29.92F HX  96


...SOUTHERN NORTH CAROLINA...

CITY           SKY/WX    TMP DP  RH WIND       PRES   REMARKS
CHARLOTTE      PTSUNNY   89  72  56 NE7       29.98F HX  96
MONROE         MOSUNNY   90  69  50 CALM      29.97F
WADESBORO      PTCLDY    95  63  34 SW5       29.96F HX  96
ROCKINGHAM     CLEAR     92  69  47 CALM      29.96F HX  97
RUTHERFORDTON  CLOUDY    85  74  67 NW3       30.00S
ASHEVILLE      MOSUNNY   85  68  56 VRB5      30.06F

$$


USA.gov is the U.S. government's official web portal to all federal, state and local government web resources and services.